Location: Miles
(41.4492°N, 81.6087°W)
Time: 11:04:31
(UTC+00:00)

Altair - Visible Passes

Search period start: 07 September 2024 00:00
Search period end: 17 September 2024 00:00
Orbit: 1501 x 1682 km, 47.2° (Epoch: 06 September)

Date Brightness Start Highest point End Pass type
(mag) Time Alt. Az. Time Alt. Az. Time Alt. Az.
07 Sep 9.5 06:57:06 10° SE 06:58:24 10° ESE 06:59:41 10° ESE visible
07 Sep 8.3 08:54:40 21° SSW 09:01:14 45° SE 09:10:41 10° ENE visible
08 Sep 8.3 08:31:08 26° S 08:36:04 42° SE 08:45:20 10° ENE visible
08 Sep 7.8 10:30:14 10° WSW 10:40:25 86° NNW 10:50:38 10° ENE visible
09 Sep 8.4 08:07:32 31° S 08:10:55 39° SE 08:19:59 10° ENE visible
09 Sep 7.7 10:05:34 12° WSW 10:15:08 89° NNW 10:25:22 10° ENE visible
10 Sep 8.4 07:43:54 33° SSE 07:45:46 36° SE 07:54:37 10° ENE visible
10 Sep 7.7 09:41:56 19° WSW 09:49:52 87° SSE 10:00:06 10° ENE visible
11 Sep 8.5 07:20:13 32° SE 07:20:39 33° SE 07:29:13 10° ENE visible
11 Sep 7.6 09:18:15 27° SW 09:24:37 84° SSE 09:34:50 10° ENE visible
12 Sep 8.7 06:56:30 29° ESE 06:56:30 29° ESE 07:03:47 10° ENE visible
12 Sep 7.6 08:54:31 37° SW 08:59:21 80° SSE 09:09:33 10° ENE visible
13 Sep 8.9 06:32:44 25° ESE 06:32:44 25° ESE 06:38:19 10° ENE visible
13 Sep 7.6 08:30:45 48° SW 08:34:07 76° SSE 08:44:17 10° ENE visible
13 Sep 7.9 10:29:20 10° W 10:39:26 66° N 10:49:33 10° ENE visible
14 Sep 9.1 06:08:57 20° E 06:08:57 20° E 06:12:49 10° ENE visible
14 Sep 7.5 08:06:58 60° SSW 08:08:53 72° SE 08:19:00 10° ENE visible
14 Sep 7.9 10:04:58 14° W 10:14:06 68° NNW 10:24:15 10° ENE visible
15 Sep 9.4 05:45:07 15° E 05:45:07 15° E 05:47:14 10° E visible
15 Sep 7.5 07:43:08 67° SSE 07:43:40 68° SE 07:53:43 10° ENE visible
15 Sep 7.8 09:41:09 20° W 09:48:46 69° NNW 09:58:57 10° ENE visible
16 Sep 9.6 05:21:16 11° E 05:21:16 11° E 05:21:37 10° E visible
16 Sep 7.7 07:19:17 61° ESE 07:19:17 61° ESE 07:28:25 10° ENE visible
16 Sep 7.7 09:17:18 28° W 09:23:27 71° NNW 09:33:39 10° ENE visible
